Terug naar catalogus

OSCAR 32

ActiefAmateurradioPO
NORAD 19071·PAYLOAD·🇺🇸 United States

Gelanceerd Apr 26, 1988 vanaf Vandenberg Space Force Base

Loading…

Volgende Passages (komende 24 uur)

TLE

VersSource: Space-Track

Epoch: Sep 14, 2026, 15:16 UTC

1 19071U 88033B   26257.63679275  .00000031  00000-0  42780-4 0  9996
2 19071  90.3361  25.2799 0189493 119.5156 254.1709 13.27989085859279

Volg OSCAR 32 in realtime met AllMySat

Download on the App Store